www.pogodaiklimat.ru

Погода и климат >> Архив погоды >> Таиланд >> Бангна Агромет


ПОГОДА в Бангна Агромете

  • Прогноз погоды в Бангна Агромете
  • Монитор погоды в Бангна Агромете

АРХИВ ПОГОДЫ в Бангна Агромете

Время (UTC), дата Ветер
(напр.,м/с)
 
Видим.   Явления Облачность Т
(С)
Тd
(С)
f
(%)
Тe
(С)
Тes
(С)
Комфортность P
(гПа)
Po
(гПа)
Тmin
(С)
Tmax
(С)
R
(мм)
R24
(мм)
S
(см)
03 13.09 СЗ 8 10 км 9/1 600 м
[Cu hum Ac lent Cs]
+31.6 +22.7 59 +41 +42 опасность
перегрева
1011.0 1010.7
06 13.09 З 8 10 км 9/5 600 м
[Cu med, cong Ac lent Cs]
+33.5 +23.6 56 +44 +46 опасность
перегрева
1008.9 1008.6
09 13.09 З 7 10 км 8/6 600 м
[Cu med, cong Ac lent Cs]
+34.5 +23.1 52 +45 +46 опасность
перегрева
1005.7 1005.4
12 13.09 Ю 3 10 км в посл. час дождь 8/5 600 м
[Cu med, cong Ac lent Cs]
+30.1 +26.2 80 +46 +46 опасность
перегрева
1006.6 1006.3 +35.4 1
15 13.09 штиль 0 7000 м слаб. морось {дождь} 10/5 300 м
[Cb cap Ac As Cs]
+28.6 +24.1 77 +40 +40 очень
душно
1008.9 1008.6 0.5
18 13.09 СЗ 8 10 км {дождь, морось} 9/3 600 м
[Sc Ac und Cs]
+27.2 +23.7 81 +37 +37 очень
душно
1007.2 1006.9 0.0
21 13.09 ЮЗ 7 8000 м слаб. дождь 10/4 600 м
[Sc Ac As Cs]
+27.1 +23.4 80 +37 +37 очень
душно
1007.2 1006.9 0.0
00 14.09 штиль 0 9000 м слаб. морось {дождь} 10/4 600 м
[Sc Ac As Cs]
+26.5 +23.6 84 +36 +36 очень
душно
1008.3 1008.0 +26.0 0.3
03 14.09 З 3 10 км {дождь, морось} 9/6 600 м
[Cu Sc Ac As Cs]
+28.5 +23.9 76 +39 +42 очень
душно
1009.3 1009.0 0.2
06 14.09 СЗ 2 10 км {дождь, морось} 10/4 600 м
[Cu med, cong Ac As Cs]
+31.4 +24.4 66 +44 +50 опасность
перегрева
1006.7 1006.4 0.2
09 14.09 ЮЗ 3 10 км 8/3 600 м
[Cu med, cong Ac lent Cs]
+32.0 +25.4 68 +46 +49 опасность
перегрева
1004.8 1004.5
12 14.09 СЗ 3 7000 м гроза, ливневой дождь 10/4 300 м
[Cb cap Ac As Cs]
+26.7 +25.3 92 +39 +39 очень
душно
1007.0 1006.7 +32.2 1
15 14.09 СЗ 3 6000 м слаб. дождь {гроза} 10/6 600 м
[Cu Sc Ac As Cs]
+26.3 +25.1 93 +38 +38 очень
душно
1009.1 1008.8 2
18 14.09 штиль 0 7000 м дымка {гроза, дождь} 8/5 600 м
[Sc Ac lent Cs]
+26.6 +25.5 94 +39 +39 очень
душно
1007.6 1007.3 0.2
21 14.09 В 2 7000 м дымка 8/3 600 м
[Sc Ac lent Cs]
+26.0 +25.3 96 +38 +38 очень
душно
1006.6 1006.3
00 15.09 В 2 6000 м дымка 6/1 600 м
[Cu med, cong Ac lent Cs]
+26.0 +25.3 96 +38 +38 очень
душно
1007.8 1007.5 +25.5
03 15.09 штиль 0 10 км 8/6 600 м
[Cu med, cong Cs]
+31.0 +25.7 73 +46 +53 опасность
перегрева
1008.4 1008.1
06 15.09 ЮЗ 5 10 км 8/8 600 м
[Cu med, cong Cs]
+32.7 +25.1 64 +46 +49 опасность
перегрева
1005.8 1005.6
09 15.09 ЮЗ 6 10 км 8/5 600 м
[Cu med, cong Ac lent Cs]
+32.5 +26.2 69 +48 +49 опасность
перегрева
1004.5 1004.2
12 15.09 ЮЗ 3 10 км 8/4 600 м
[Cu med, cong Cs]
+29.0 +25.2 80 +42 +42 опасность
перегрева
1005.7 1005.4 +33.9
15 15.09 штиль 0 10 км 8/3 600 м
[Cu med, cong Ac lent Cs]
+29.0 +25.8 83 +43 +43 опасность
перегрева
1008.0 1007.7
18 15.09 ЮЗ 3 10 км гроза без осадков 10/5 300 м
[Cb cap Ac As Cs]
+26.2 +23.3 84 +35 +35 очень
душно
1008.1 1007.8 3
21 15.09 штиль 0 10 км {гроза} 8/1 600 м
[Cu hum Ac lent Cs]
+25.4 +24.5 95 +36 +36 очень
душно
1006.2 1005.9 1
00 16.09 штиль 0 10 км {гроза} 8/4 600 м
[Sc Ac lent Cs]
+25.9 +24.6 93 +37 +37 очень
душно
1007.3 1007.0 +24.9 4
03 16.09 штиль 0 10 км 8/5 600 м
[Cu med, cong Ac lent Cs]
+31.2 +25.4 71 +45 +52 опасность
перегрева
1008.8 1008.5
06 16.09 ЮЗ 6 10 км 8/4 600 м
[Cb cap Ac lent Cs]
+32.9 +25.6 66 +48 +51 опасность
перегрева
1005.9 1005.6
09 16.09 штиль 0 10 км в посл. час гроза 9/4 300 м
[Cb cap Ac As Cs]
+26.7 +25.3 92 +39 +42 очень
душно
1004.5 1004.2 17
12 16.09 штиль 0 10 км {гроза} 9/3 600 м
[Cu med, cong Ac As Cs]
+28.5 +25.8 85 +42 +42 опасность
перегрева
1005.1 1004.8 +33.2 17
15 16.09 штиль 0 10 км 8/3 600 м
[Sc Ac lent Cs]
+27.7 +26.0 90 +41 +41 опасность
перегрева
1007.3 1007.0
18 16.09 штиль 0 10 км 9/3 600 м
[Sc Ac As Cs]
+27.6 +26.0 91 +41 +41 опасность
перегрева
1007.1 1006.8
21 16.09 штиль 0 6000 м дымка 8/3 600 м
[Cu hum Ac lent Cs]
+27.0 +26.0 94 +40 +40 очень
душно
1006.6 1006.3
00 17.09 штиль 0 10 км 8/3 600 м
[Cu med, cong Ac lent Cs]
+27.0 +25.6 92 +40 +40 очень
душно
1007.9 1007.6 +26.3
03 17.09 З 5 8000 м дымка 8/6 600 м
[Cu med, cong Ac lent Cs]
+30.4 +25.5 75 +45 +47 опасность
перегрева
1009.2 1008.9
06 17.09 ЮЗ 3 10 км 8/6 600 м
[Cu med, cong Cs]
+33.0 +24.8 62 +46 +52 опасность
перегрева
1006.7 1006.4
09 17.09 Ю 5 >70 км 9/6 600 м
[Cu Sc Ac As Cs]
+32.2 +25.8 69 +47 +48 опасность
перегрева
1005.1 1004.8
12 17.09 Ю 4 7000 м гроза, ливневой дождь 10/4 300 м
[Cb cap Ac As Cs]
+29.4 +26.3 83 +45 +45 опасность
перегрева
1007.2 1006.9 +34.5 0.1
15 17.09 В 2 6000 м слаб. дождь {гроза} 10/4 300 м
[Cb cap Ac As Cs]
+26.7 +25.1 91 +38 +38 очень
душно
1009.4 1009.1 2
18 17.09 СВ 4 7000 м слаб. дождь {гроза} 10/6 600 м
[Cu Sc Ac As Cs]
+26.5 +24.6 89 +37 +37 очень
душно
1008.5 1008.2 0.8
21 17.09 штиль 0 9000 м дымка {дождь} 6/1 600 м
[Sc Ac lent Cs]
+25.4 +24.1 93 +35 +35 очень
душно
1007.5 1007.2 0.1
00 18.09 В 3 8000 м дымка {дождь} 8/1 600 м
[Cu med, cong Ac lent Cs]
+25.8 +24.5 93 +36 +37 очень
душно
1009.1 1008.8 +24.8 3
03 18.09 СВ 4 10 км 6/3 600 м
[Cu med, cong Ac lent Cs]
+31.4 +24.7 68 +45 +50 опасность
перегрева
1010.1 1009.8
06 18.09 СВ 4 10 км 8/4 600 м
[Cu med, cong Cs]
+33.2 +24.5 60 +46 +53 опасность
перегрева
1007.4 1007.1
09 18.09 В 3 10 км 6/3 600 м
[Cu med, cong Cs]
+34.6 +22.9 51 +45 +48 опасность
перегрева
1005.5 1005.2
12 18.09 ЮВ 2 10 км 8/3 600 м
[Cu med, cong Cs]
+31.7 +25.4 69 +46 +46 опасность
перегрева
1007.5 1007.2 +35.2
15 18.09 штиль 0 8000 м в посл. час гроза 6/3 600 м
[Cu med, cong Ac lent Cs]
+26.5 +24.5 89 +37 +37 очень
душно
1010.0 1009.7 16
18 18.09 штиль 0 8000 м гроза без осадков 9/3 600 м
[Cb cap Ac As Cs]
+26.2 +24.0 88 +36 +36 очень
душно
1008.7 1008.4 1
21 18.09 В 3 8000 м слаб. дождь {гроза} 10/3 600 м
[Cu med, cong Ac As]
+26.0 +24.8 93 +37 +37 очень
душно
1008.7 1008.4 1
00 19.09 В 2 8000 м в посл. час дождь {гроза} 8/3 600 м
[Cu med, cong Ac lent Cs]
+26.2 +25.0 93 +37 +38 очень
душно
1009.7 1009.4 +25.4 4
03 19.09 ЮВ 2 8000 м дымка 10/4 600 м
[Cu med, cong Ac As Cs]
+28.1 +25.8 87 +42 +46 опасность
перегрева
1011.2 1010.9
06 19.09 СВ 4 10 км 9/3 600 м
[Cu med, cong Ac lent Cs]
+30.0 +24.9 74 +43 +48 опасность
перегрева
1008.7 1008.4
09 19.09 СВ 4 8000 м дымка 9/5 600 м
[Cu med, cong Ac As Cs]
+31.6 +24.3 65 +44 +45 опасность
перегрева
1006.7 1006.4
12 19.09 штиль 0 8000 м дымка 8/4 600 м
[Cu med, cong Ac As Cs]
+29.0 +25.9 83 +43 +43 опасность
перегрева
1008.0 1007.7 +32.0
15 19.09 СЗ 4 7000 м слаб. дождь {гроза} 10/6 300 м
[Cu med, cong Ac As]
+25.5 +24.3 93 +35 +35 очень
душно
1010.7 1010.4 50
18 19.09 ЮЗ 2 8000 м дымка {гроза, дождь} 9/3 600 м
[Cu med, cong Ac As Cs]
+25.5 +24.8 96 +36 +36 очень
душно
1010.0 1009.7 3
21 19.09 штиль 0 8000 м дымка 9/3 600 м
[Cu med, cong Ac As Cs]
+25.7 +25.0 96 +37 +37 очень
душно
1008.0 1007.7
00 20.09 штиль 0 9000 м дымка 8/3 600 м
[Cu med, cong Ac lent Cs]
+25.5 +24.9 96 +36 +37 очень
душно
1009.2 1008.9 +24.8

 

Местоположение метеостанции Бангна Агромет (Таиланд): широта 13.67 долгота 100.62 высота над уровнем моря 6 м.

В архиве по умолчанию представлена погода в Бангна Агромете за последнюю неделю. Архивные данные за месяц целиком и за предыдущие месяцы, начиная с января 2011 года, Вы можете получить, выбрав интересующий диапазон дат из раскрывающегося списка и нажав кнопку "Ввод!".


*Определитесь, кто Вы:
робот инопланетянин человек

Внимание! Время в таблицах - всемирное. Для получения местного времени необходимо прибавить поправку, которая равна 7 ч.

Смотрите также архив погоды в соседних городах и на ближайших метеорологических станциях:

Погода в Бангкоке 2 (Таиланд) (6 км)
Погода в Бангкоке (Таиланд) (9 км)
Погода в Аэропорту Суварнабхуми (Таиланд) (15 км)
Погода в Самутрудкан Агромете (Таиланд) (22 км)
Погода в Дон Муанг (Таиланд) (28 км)
Погода в Бангкок Пилот (Таиланд) (32 км)
Погода в Патхумтхани (Таиланд) (48 км)
Погода в Чонбури (Таиланд) (51 км)
Погода в Ратбури (Таиланд) (51 км)
Погода на Ко Сичан (Таиланд) (59 км)

Пояснения к столбцам:

Ветер - указаны скорость ветра в м/с - средняя за 10 мин, порывы в срок и между сроками (в фигурных скобках) и направление, откуда дует ветер: С - северный, СВ - северо-восточный, В - восточный, ЮВ - юго-восточный, Ю - южный, ЮЗ - юго-западный, З - западный, СЗ - северо-западный.
Видимость - горизонтальная дальность видимости в метрах или километрах. При видимости от 1 до 10 км при отсутствии осадков обычно наблюдается дымка, при ухудшении видимости до 1 км и менее - туман. В сухую погоду видимость может ухудшаться дымом, пылью или мглою.
Явления - указаны атмосферные явления, наблюдавшиеся в срок или в последний час перед сроком; фигурными скобками обозначены явления, наблюдавшиеся между сроками (за 1-3 часа до срока); квадратными скобками обозначены град или гололедные отложения с указанием их диаметра в мм.
Облачность - указаны через наклонную черту общая и нижняя облачность в баллах и высота нижней границы облаков в метрах; квадратными скобками обозначены формы облаков: Ci - перистые, Cs - перисто-слоистые, Cc - перисто-кучевые, Ac - высококучевые, As - высокослоистые, Sc - слоисто-кучевые, Ns - слоисто-дождевые, Cu - кучевые, Cb - кучево-дождевые. Подробнее классификацию облаков см. в Атласе облаков (PDF).
T - Температура воздуха - температура, измеренная на высоте 2 м над землей.
Td - Температура точки росы - температура, при понижении до которой содержащийся в воздухе водяной пар достигнет насыщения.
f - Относительная влажность воздуха - влажноcть воздуха, измеренная на высоте 2 м над землей.
Te - Эффективная температура - температура, которую ощущает одетый по сезону человек в тени. Характеристика душности погоды. При расчете учитывается влияние влажности воздуха и скорости ветра на теплоощущения человека.
Tes - Эффективная температура на солнце - температура, которую ощущает человек, с поправкой на солнечный нагрев. Характеристика знойности погоды. Зависит от высоты солнца над горизонтом, облачности и скорости ветра. Ночью, в пасмурную погоду, а также при ветре 12 м/с и более поправка равна нулю.
P - Атмосферное давление - приведенное к уровню моря атмосферное давление.
Po - Атмосферное давление - измеренное на уровне метеостанции атмосферное давление.
Tmin - Минимальная температура - минимум температуры воздуха на высоте 2 м над землей.
Tmax - Максимальная температура - максимум температуры воздуха на высоте 2 м над землей.
R - Количество осадков - Количество выпавших осадков за период времени, мм. При наведении курсора мыши на число - период времени, за который выпало указанное количество осадков.
R24 - Количество осадков - Количество выпавших осадков за 24 часа, мм.
S - Снежный покров - Высота снежного покрова, см. При наведении курсора мыши на число - состояние снежного покрова и степень покрытия местности в баллах.